Back to catalog

STARLINK-31574

AliveCommunicationsVLEO
NORAD 59543·PAYLOAD·🇺🇸 United States

Launched Apr 18, 2024 from Cape Canaveral Space Force Station

Loading…

Next Passes (next 24 hours)

TLE

FreshSource: CelesTrak SupGP

Epoch: Sep 14, 2026, 22:41 UTC

1 59543C 24074K   26257.94562500 -.00013969  00000+0 -50597-3 0  2571
2 59543  43.0037 354.8369 0001496 268.6935 213.8278 15.27583261    14

Track STARLINK-31574 in real time with AllMySat

Download on the App Store